Preview of NWS' New Version of Forecast
This preview is not operational and should not be used for support decisions.

Regional Weather Roundup (RWR)

Issued by Philadelphia/Mt Holly (PHI)

                            
000
ASUS41 KPHI 182312
RWRPHI

REGIONAL WEATHER ROUNDUP
NATIONAL WEATHER SERVICE MOUNT HOLLY NJ
700 PM EDT WED SEP 18 2019

NOTE:  "FAIR" INDICATES FEW OR NO CLOUDS BELOW 12,000 FEET WITH NO
SIGNIFICANT WEATHER AND/OR OBSTRUCTIONS TO VISIBILITY.

 * = STATION DOES NOT REPORT PRECIPITATION (E.G. RAIN, SNOW, ETC.) 
        OR FOG.

NJZ015>026-190000-
SOUTHERN NEW JERSEY
  
CITY           SKY/WX    TMP DP  RH WIND       PRES   REMARKS
POMONA         FAIR      63  50  62 NE9       30.23R                  
WILDWOOD*      MOCLDY    64  52  64 NE13G21   30.23R                  
MILLVILLE      FAIR      65  51  60 E13       30.23R                  
WRIGHTSTOWN    FAIR      63  49  61 E7        30.23R                  
MOUNT HOLLY    FAIR      64  50  60 VRB6      30.23R                  
TRENTON        FAIR      64  49  57 E8        30.23R                  

$$
NJZ001>014-190000-
NORTHERN NEW JERSEY
  
CITY           SKY/WX    TMP DP  RH WIND       PRES   REMARKS
SUSSEX         FAIR      63  43  48 N7        30.25S                  
ANDOVER*         N/A     60  50  69 CALM      30.25S                  
MORRISTOWN     PTCLDY    64  52  63 E8        30.24S                  
NEWARK         FAIR      67  46  47 E10       30.23F                  
TETERBORO      FAIR      65  46  50 E10       30.23S                  
CALDWELL       FAIR      66  47  50 SE8       30.24S                  
SOMERVILLE     FAIR      65  49  56 E3        30.22R                  
ALLAIRE*       FAIR      63  48  58 NE8       30.25S                  
TOMS RIVER*    FAIR      62  51  67 NE7       30.25R                  

$$
PAZ043-044-047-054-055-060>062-066>071-190000-
EASTERN PENNSYLVANIA
  
CITY           SKY/WX    TMP DP  RH WIND       PRES   REMARKS
PHILADELPHIA   MOCLDY    69  47  45 E12       30.23R                  
NORTH PHILA    FAIR      68  48  48 E10       30.24R                  
BLUE BELL*     FAIR      64  49  57 NE3       30.23S                  
DOYLESTOWN     FAIR      66  48  52 CALM      30.22S                  
QUAKERTOWN*    CLEAR     66  50  55 CALM      30.24                   
PERKASIE*      FAIR      64  48  55 CALM      30.24S                  
POTTSTOWN      FAIR      65  48  54 CALM      30.24S                  
LANCASTER      FAIR      66  48  52 E5        30.22R                  
COATESVILLE    FAIR      66  50  55 CALM      30.24S                  
WEST CHESTER   FAIR      68  46  45 E3        30.23R                  
READING        FAIR      68  48  48 SE3       30.22R                  
ALLENTOWN      FAIR      70  42  36 E8        30.23R                  
QN CITY/ALNTWN FAIR      66  45  45 E5        30.24S                  
MOUNT POCONO   FAIR      59  45  59 VRB6      30.27R                  
HAZLETON       FAIR      59  45  58 CALM      30.28S                  
LEHIGHTON      FAIR      61  54  77 CALM      30.24R                  
WILKES BARRE   FAIR      68  45  43 VRB3      30.23R                  

$$
DEZALL-MDZ008-012-015-019-020-190000-
DELAWARE AND EASTERN MARYLAND
  
CITY           SKY/WX    TMP DP  RH WIND       PRES   REMARKS
WILMINGTON     FAIR      71  48  43 NE7       30.22R                  
DOVER          FAIR      66  54  65 E14       30.20S                  
CHESWOLD       CLOUDY    68  52  56 E7        30.21R                  
GEORGETOWN     NOT AVBL                                               
EASTON         PTCLDY    70  54  56 E5        30.24R                  
STEVENSVILLE   FAIR      72  50  46 E6        30.20R                  
ABERDEEN       PTCLDY    70  50  49 NE7       30.21                   
PATUXENT       MOCLDY    72  53  51 E13       30.18                   
OCEAN CITY     CLOUDY    66  53  63 NE14G23   30.21R                  
WALLOPS ISLAND CLOUDY    67  54  63 NE18      30.20R                  
CAMBRIDGE      CLEAR     68  54  60 E8        30.20R                  
SALISBURY      MOCLDY    66  52  60 E12       30.21R                  

$$
PAZ001-021-NYZ056-072-MDZ011-DCZ001-190000-
OTHER NEARBY LOCATIONS
  
CITY           SKY/WX    TMP DP  RH WIND       PRES   REMARKS
HARRISBURG     MOCLDY    70  46  42 SE7       30.21R                  
STATE COLLEGE  CLEAR     64  43  45 NE6       30.25R                  
WILLIAMSPORT   FAIR      70  44  39 VRB3      30.22S                  
BINGHAMTON     FAIR      61  42  49 E5        30.27R                  
NEW YORK CITY  FAIR      64  45  49 E9        30.27S                  
BALTIMORE      FAIR      72  51  47 E8        30.20R                  
WASHINGTON DC  MOCLDY    74  51  44 E9        30.19R                  

$$